Temperature
23 23 22 21 20 20 19 19 19 19 19 18 18 18 18 18 18 18 18 18 18 18 18 18 18 17 17 17 17 18 18 18 18 18 18 18 18 18 18 18 18 18 17
24 23 22 21 20 20 19 19 19 18 18 18 18 18 18 18 18 18 17 17 17 17 17 17 17 17 17 17 17 17 17 17 17 17 17 18 18 18 18 18 18 17 17
24 23 22 22 21 20 19 19 19 18 18 18 18 18 18 18 18 18 17 17 17 17 17 17 17 17 17 17 17 17 17 17 17 17 17 17 17 18 18 18 17 17 17
24 23 22 22 21 20 19 19 19 18 18 18 18 18 18 17 18 17 17 17 17 17 17 17 17 17 17 17 17 17 17 17 17 17 17 17 17 17 17 17 17 17 17
25 24 23 22 21 20 20 19 19 18 18 18 18 18 18 17 17 17 17 17 17 17 17 17 17 17 17 17 17 17 17 17 17 17 17 17 17 17 17 17 17 17 17
25 24 23 22 21 21 20 19 19 18 18 18 17 17 17 17 17 17 17 17 17 17 17 17 17 17 17 17 17 17 17 17 17 17 17 17 17 17 17 17 17 17 17
25 24 23 22 22 21 20 19 19 18 18 18 17 17 17 17 17 17 17 17 17 17 17 17 17 17 17 17 16 16 16 16 16 16 16 16 16 16 16 16 16 16 16
26 25 24 23 22 21 20 19 19 18 18 18 17 17 17 17 17 17 17 17 17 17 17 17 17 16 16 16 16 16 16 16 16 16 16 16 16 16 16 16 16 16 16
26 25 24 23 22 21 20 19 19 18 18 18 17 17 17 17 17 17 17 16 16 16 16 16 16 16 16 16 16 16 16 16 16 16 16 16 16 16 16 16 16 16 16
26 25 24 23 22 21 20 20 19 18 18 18 17 17 17 17 17 17 16 16 16 16 16 16 16 16 16 16 16 16 16 16 15 15 16 16 15 15 16 16 16 16 16
26 25 24 23 22 21 20 20 19 19 18 18 17 17 17 17 17 16 16 16 16 16 16 16 16 16 15 15 15 16 15 15 15 15 15 15 15 15 15 15 15 15 15
25 25 24 23 22 21 20 20 19 19 18 18 17 17 17 17 16 16 16 16 16 16 16 16 15 15 15 15 15 15 15 15 15 15 15 15 15 15 15 15 15 15 15
25 24 23 22 22 21 20 20 19 19 18 18 17 17 17 17 16 16 16 16 16 16 15 15 15 15 15 15 15 15 15 15 15 15 14 14 14 14 14 15 14 15 15
25 24 23 22 21 21 20 20 19 19 18 18 17 17 17 16 16 16 16 15 15 15 15 15 15 15 15 15 15 15 15 15 14 14 14 14 14 14 14 14 14 14 14
24 23 22 21 21 20 20 19 19 19 18 18 17 17 16 16 16 16 16 15 15 15 14 14 14 14 14 14 15 14 14 14 14 14 14 14 14 14 14 14 14 14 14
24 23 22 21 20 20 19 19 19 18 18 18 17 17 16 16 16 16 15 15 15 14 14 14 14 14 14 14 14 14 14 14 14 14 13 14 14 14 14 14 14 13 13
24 23 22 21 20 20 19 18 18 18 17 17 17 16 16 16 15 15 15 15 14 14 14 14 14 14 14 14 14 14 14 14 14 13 13 13 13 13 13 13 13 13 13
23 22 22 21 20 19 19 18 18 18 17 17 16 16 16 15 15 15 15 14 14 14 14 14 13 13 13 13 13 13 14 13 13 13 13 13 13 13 13 13 13 13 13
22 22 21 20 20 19 18 18 18 17 17 16 16 16 15 15 15 15 14 14 14 14 14 13 13 13 13 13 13 13 13 13 13 13 13 13 12 12 12 12 12 12 13
22 21 20 20 19 18 18 17 17 17 16 16 15 15 15 15 15 14 14 14 14 14 13 13 13 13 13 13 13 13 13 13 12 12 12 12 12 12 12 12 12 12 12
21 20 20 19 18 18 17 17 16 16 16 15 15 15 15 15 14 14 14 14 14 14 14 13 13 13 13 13 13 12 12 12 12 12 12 12 12 12 12 12 12 12 12
20 19 19 18 18 17 17 16 16 16 15 15 15 15 14 14 14 14 14 14 14 14 13 13 13 13 13 13 12 12 12 12 12 12 11 11 12 12 12 11 11 11 11
19 18 18 18 17 17 17 16 16 15 15 15 14 14 14 14 14 14 14 14 14 13 13 13 13 12 12 12 12 12 12 12 12 11 11 11 11 11 11 11 11 11 11
19 18 17 17 17 16 16 16 15 15 15 15 14 14 14 14 14 14 14 13 13 13 13 12 12 12 12 12 12 12 12 11 11 11 11 11 11 11 11 11 11 11 10
18 17 17 17 16 16 16 15 15 15 15 14 14 14 14 14 14 14 14 13 13 13 13 13 12 12 12 12 12 12 11 11 11 11 11 11 11 11 10 10 10 10 10
17 17 17 16 16 15 15 15 15 15 15 14 14 14 14 14 14 14 13 13 13 13 13 13 12 12 12 12 12 11 11 11 11 11 10 10 10 10 10 10 10 10 10
Wind_Speed
9 7 7 6 6 5 3 3 2 2 1 1 2 1 2 1 1 1 2 2 2 2 1 1 0 1 1 0 1 1 2 2 2 2 2 2 3 2 2 3 2 3 4
9 7 6 6 6 5 4 3 2 1 1 1 0 0 1 1 1 2 2 2 2 2 1 1 1 0 0 0 1 1 1 2 1 1 1 1 1 2 2 2 3 2 2
10 9 7 6 6 6 5 3 3 2 1 1 1 1 0 1 1 1 2 1 1 2 2 1 1 1 0 0 1 1 2 2 2 1 1 1 1 1 1 2 1 1 2
10 10 8 6 6 6 6 5 4 3 2 1 1 1 1 1 1 1 1 1 1 2 2 2 1 1 1 0 1 0 2 2 3 2 2 2 1 1 1 1 1 2 2
9 9 9 8 7 7 7 6 5 3 2 2 1 2 2 1 1 1 1 1 1 1 2 2 2 1 1 1 1 1 1 2 2 2 2 2 2 2 1 2 2 2 2
10 9 8 8 7 7 7 7 6 4 3 2 1 1 2 3 4 3 2 1 1 1 2 2 2 2 1 1 1 2 2 3 3 3 3 2 2 2 2 3 3 2 2
10 10 9 9 8 7 7 7 6 4 3 2 1 1 1 2 2 2 2 2 1 1 2 3 2 2 2 1 2 1 2 2 3 3 3 3 3 2 2 2 2 3 2
11 10 10 9 8 8 7 7 6 4 3 2 2 0 1 1 1 2 2 2 2 2 2 2 1 2 2 3 2 2 2 2 3 3 3 3 3 3 2 1 2 3 2
10 9 9 9 8 8 8 7 6 5 4 3 2 1 1 1 2 2 2 2 2 1 1 1 1 1 2 2 2 1 2 2 2 3 3 3 3 3 3 2 1 2 3
10 9 8 8 8 8 8 7 6 5 4 3 1 2 1 1 0 2 2 2 3 2 2 1 1 1 1 2 3 2 2 2 2 2 3 4 3 4 3 3 2 2 3
9 9 8 7 7 8 8 6 6 5 5 3 2 1 1 1 1 1 2 2 2 2 2 2 2 2 2 2 2 3 2 2 2 3 3 3 4 4 4 3 3 3 2
8 9 9 8 7 7 6 5 5 5 5 4 3 2 1 1 1 1 1 1 1 1 1 2 2 3 3 2 3 3 4 3 2 3 3 4 3 4 4 4 4 3 3
7 8 8 8 7 6 5 4 4 4 4 4 4 2 2 1 0 1 1 1 1 2 2 2 3 3 4 4 3 3 4 4 3 3 3 3 3 4 3 4 4 3 3
7 7 7 7 6 6 5 4 4 3 3 4 3 3 2 1 1 0 1 1 1 2 2 2 2 3 3 3 4 4 4 4 4 3 3 3 3 3 4 4 4 4 3
6 6 5 6 6 5 4 4 4 4 3 3 2 2 2 1 0 1 0 1 1 1 1 2 3 3 3 4 5 4 4 3 3 3 3 3 3 4 4 3 4 5 4
5 6 6 6 6 5 4 4 4 3 3 3 2 2 2 1 0 0 0 0 1 2 2 2 3 4 4 7 8 6 5 4 3 3 3 3 2 3 3 4 4 4 4
5 5 6 7 6 6 5 3 3 3 3 2 1 1 1 1 1 1 1 1 1 1 1 2 2 3 4 5 6 7 4 3 3 2 2 4 4 3 3 4 4 4 5
4 4 5 6 6 6 6 4 3 3 2 2 1 1 1 1 1 1 1 0 1 1 1 1 1 1 3 4 5 6 3 3 3 2 2 2 3 4 4 4 4 3 3
4 4 5 5 4 4 5 4 3 3 2 2 1 1 1 1 1 1 1 1 1 1 1 1 1 1 1 2 4 4 3 3 4 3 2 1 1 3 5 3 3 4 4
5 5 5 5 4 3 4 3 2 2 2 1 1 1 1 1 1 1 1 1 1 1 1 1 1 1 0 1 2 3 2 3 3 3 2 2 2 3 4 3 4 5 5
6 6 5 4 4 4 4 3 2 1 1 2 2 1 1 1 1 1 1 1 1 2 1 1 1 1 0 1 1 1 1 3 3 3 3 2 2 3 4 4 4 5 6
5 5 5 4 4 4 3 3 2 2 2 2 1 1 0 2 1 1 1 1 2 2 2 1 1 1 0 1 1 1 2 4 3 3 3 3 4 5 5 5 5 7 6
5 4 5 5 4 4 3 2 2 2 1 1 1 0 0 1 1 1 2 2 2 2 2 2 2 1 1 0 0 1 3 4 2 3 4 5 5 5 4 4 5 5 3
5 4 4 4 4 3 2 2 2 2 1 0 1 1 2 2 2 1 2 1 1 2 3 3 3 2 1 1 1 2 2 3 2 3 4 5 6 5 4 4 2 2 3
3 4 3 3 3 3 3 2 2 1 1 1 2 3 3 2 2 2 2 1 0 0 1 2 3 3 3 2 2 2 2 3 3 4 3 3 3 2 2 3 3 2 2
3 3 3 3 3 3 3 2 1 1 1 2 3 3 3 2 3 2 1 1 2 3 2 2 2 1 0 2 3 3 3 4 4 3 3 4 3 2 3 3 3 2 2
Wind_Direction
139 137 137 134 127 120 120 112 103 85 41 21 21 2 7 355 25 70 55 14 342 357 17 354 325 330 72 64 316 290 278 277 277 283 275 260 252 214 209 226 194 182 175
145 147 152 147 142 135 127 123 124 121 115 96 55 317 327 314 50 38 63 18 346 338 349 19 326 349 30 43 314 310 297 281 264 261 270 260 261 271 243 216 197 192 165
155 155 159 155 151 147 142 124 112 115 93 72 65 12 23 325 18 38 57 12 324 346 354 332 331 335 307 139 271 297 281 282 277 253 252 251 242 281 272 247 213 187 191
158 160 163 161 156 150 142 120 111 108 100 88 28 337 35 11 7 22 57 14 351 1 359 336 344 334 339 0 286 285 297 292 304 296 271 287 330 257 279 286 243 219 213
158 159 161 161 157 153 145 133 123 119 106 83 39 349 10 343 5 32 58 46 35 15 22 27 12 10 346 345 326 337 318 317 311 306 302 299 300 281 264 276 277 259 236
156 156 154 152 152 148 139 135 128 127 127 111 62 34 353 348 3 0 0 349 54 56 33 41 20 6 355 346 345 354 338 327 319 320 313 305 291 297 279 277 275 270 267
150 151 150 147 146 140 134 124 121 124 123 118 84 37 323 312 336 342 335 337 10 53 47 39 27 356 344 345 344 354 354 347 334 329 326 318 305 299 290 287 287 289 274
145 147 148 149 148 142 135 129 132 137 134 124 124 92 294 308 359 357 342 3 10 36 71 61 18 352 339 344 348 353 348 353 329 329 337 319 317 309 300 287 277 292 279
138 143 144 143 141 141 137 135 136 140 139 135 142 129 53 33 13 347 358 12 357 2 68 59 18 353 335 339 338 341 333 340 329 325 330 323 314 314 317 308 292 275 280
140 142 139 135 135 136 132 134 137 141 132 126 137 136 128 115 55 19 22 11 357 0 11 18 357 330 332 334 328 320 328 319 326 325 340 333 323 319 320 312 304 286 270
137 135 131 132 135 133 132 135 139 141 140 133 120 99 107 124 128 65 38 20 11 11 355 340 329 328 334 326 320 317 315 310 323 325 331 322 317 324 315 322 321 319 313
136 138 138 135 136 133 131 136 145 146 146 140 135 134 131 101 53 57 61 46 10 359 360 357 345 338 343 336 320 318 324 313 311 316 322 319 324 328 328 328 320 321 303
141 140 136 134 135 132 130 138 148 146 144 142 138 136 137 135 54 31 33 17 9 13 14 9 356 347 349 340 328 322 315 319 316 314 318 319 329 333 335 327 319 318 317
131 130 133 133 128 126 127 133 124 124 127 129 138 145 151 153 151 66 39 7 18 35 10 359 350 341 344 340 335 327 312 320 328 335 336 336 338 338 325 319 325 320 320
134 127 133 124 122 119 124 123 115 105 102 106 111 117 129 158 169 100 60 19 9 356 357 358 0 349 353 358 352 330 313 318 331 342 344 352 21 23 357 340 343 331 318
151 144 144 131 128 125 127 120 114 117 109 96 85 84 85 85 89 111 237 53 16 357 6 4 8 358 7 20 15 354 330 333 339 335 340 336 25 21 4 356 350 344 318
150 147 144 143 138 135 122 109 109 115 114 108 99 76 65 49 17 316 23 24 344 339 3 11 14 18 26 19 8 358 342 335 326 320 318 321 351 9 356 341 327 323 319
136 134 137 141 143 138 133 131 129 122 124 123 100 75 55 44 19 345 352 339 323 336 3 348 359 346 12 15 4 352 324 314 316 322 315 324 345 350 354 332 334 323 314
124 123 125 126 121 126 130 131 131 133 121 106 93 60 15 349 350 352 3 357 329 309 310 311 322 328 15 12 359 356 328 325 318 308 331 345 5 5 348 330 324 323 320
121 117 119 122 121 118 117 120 114 129 138 123 104 61 359 355 352 349 358 346 307 290 297 321 321 304 313 74 3 344 325 326 329 331 343 30 19 357 350 333 317 310 315
112 110 109 113 110 109 111 113 103 104 113 105 100 73 26 334 344 20 336 326 330 310 283 295 304 283 93 84 34 350 328 328 325 326 333 358 349 336 325 315 302 294 302
119 126 117 113 112 115 127 128 115 89 89 97 95 92 3 317 6 13 319 310 299 291 282 276 292 303 37 67 26 312 282 302 316 322 336 352 346 327 313 306 290 294 304
129 134 136 132 125 122 133 136 115 101 89 89 77 45 334 331 299 263 273 277 282 294 302 297 286 286 285 182 263 273 286 307 316 324 333 323 309 311 307 300 302 303 303
138 143 144 140 134 133 130 120 106 104 110 76 304 264 240 242 257 267 266 268 300 318 326 320 318 313 325 15 4 323 300 298 306 313 311 306 301 302 309 321 325 301 304
138 142 144 150 150 132 118 131 133 145 193 229 246 251 243 237 234 245 277 266 335 3 288 323 336 344 353 334 318 303 307 317 321 312 297 300 309 323 319 308 300 291 298
147 163 166 167 167 157 143 141 162 204 236 246 254 257 254 249 246 224 224 171 184 174 193 215 251 332 340 286 311 315 306 306 318 323 303 301 307 309 311 317 316 312 311
Height
1515 1517 1519 1520 1521 1521 1521 1521 1520 1520 1521 1521 1520 1520 1520 1520 1520 1519 1519 1518 1518 1519 1519 1519 1519 1520 1520 1520 1520 1520 1519 1520 1520 1520 1520 1520 1520 1520 1521 1521 1521 1521 1521
1514 1516 1518 1519 1520 1520 1520 1519 1519 1519 1520 1520 1520 1521 1521 1520 1520 1519 1518 1518 1518 1518 1518 1518 1518 1519 1519 1519 1519 1518 1518 1519 1519 1519 1518 1519 1520 1518 1519 1519 1519 1519 1519
1512 1515 1517 1518 1519 1519 1519 1519 1518 1518 1519 1520 1520 1521 1520 1520 1520 1519 1518 1518 1517 1517 1517 1517 1517 1518 1518 1518 1518 1517 1517 1518 1518 1518 1518 1518 1517 1517 1517 1516 1517 1517 1516
1509 1513 1515 1517 1518 1518 1519 1518 1518 1519 1519 1520 1520 1520 1520 1519 1519 1519 1518 1517 1517 1516 1517 1517 1517 1517 1517 1517 1517 1517 1517 1517 1517 1517 1517 1517 1517 1517 1515 1515 1515 1515 1514
1507 1511 1513 1515 1517 1518 1518 1518 1518 1519 1519 1519 1519 1520 1520 1519 1519 1519 1518 1517 1516 1516 1516 1516 1516 1516 1516 1516 1516 1516 1516 1516 1516 1516 1515 1515 1515 1515 1515 1514 1513 1513 1512
1506 1509 1512 1514 1516 1517 1518 1518 1518 1518 1519 1519 1519 1519 1519 1519 1519 1518 1517 1517 1516 1516 1516 1515 1515 1515 1515 1515 1515 1515 1515 1514 1514 1514 1514 1514 1514 1513 1513 1512 1511 1510 1510
1504 1508 1510 1513 1514 1516 1517 1518 1517 1518 1518 1518 1518 1518 1519 1518 1518 1518 1517 1517 1516 1516 1515 1515 1514 1514 1514 1514 1514 1514 1513 1513 1513 1513 1512 1512 1512 1511 1511 1510 1509 1508 1508
1503 1506 1509 1511 1513 1515 1516 1517 1517 1517 1518 1518 1518 1518 1518 1518 1517 1517 1517 1516 1516 1515 1514 1514 1514 1513 1513 1513 1513 1513 1512 1512 1512 1512 1511 1510 1510 1509 1509 1508 1507 1506 1505
1501 1505 1508 1510 1512 1514 1516 1516 1517 1517 1517 1517 1517 1517 1517 1517 1517 1516 1516 1516 1515 1515 1514 1513 1513 1513 1512 1512 1512 1511 1511 1511 1510 1510 1509 1508 1508 1508 1507 1507 1506 1506 1504
1500 1504 1507 1510 1512 1513 1515 1516 1516 1516 1517 1517 1517 1517 1516 1516 1516 1516 1515 1515 1514 1514 1513 1513 1512 1511 1511 1511 1511 1510 1510 1509 1509 1508 1507 1506 1506 1505 1505 1504 1504 1503 1503
1500 1503 1506 1508 1511 1513 1514 1515 1516 1516 1516 1516 1516 1516 1516 1516 1516 1515 1515 1514 1513 1513 1512 1511 1511 1510 1510 1510 1509 1508 1508 1508 1507 1506 1506 1505 1504 1503 1503 1502 1501 1501 1501
1500 1502 1505 1507 1510 1512 1513 1514 1515 1515 1515 1515 1515 1515 1515 1515 1515 1514 1514 1513 1512 1512 1511 1510 1509 1509 1509 1508 1508 1507 1507 1506 1505 1505 1504 1503 1502 1501 1501 1500 1499 1499 1499
1499 1501 1504 1507 1509 1511 1512 1514 1515 1515 1515 1515 1514 1514 1514 1514 1513 1513 1513 1512 1511 1511 1510 1509 1508 1508 1507 1506 1506 1506 1505 1505 1504 1503 1502 1501 1501 1500 1499 1498 1497 1497 1497
1500 1502 1504 1506 1508 1510 1511 1513 1514 1514 1514 1514 1514 1513 1513 1513 1512 1512 1511 1511 1510 1510 1509 1508 1507 1506 1505 1505 1504 1504 1504 1503 1502 1501 1500 1499 1499 1498 1497 1497 1496 1495 1495
1500 1502 1503 1505 1508 1510 1511 1511 1512 1513 1513 1513 1513 1513 1512 1512 1511 1511 1510 1510 1509 1509 1508 1507 1506 1505 1504 1503 1503 1502 1502 1501 1500 1500 1499 1498 1497 1496 1495 1495 1494 1493 1492
1500 1502 1503 1504 1507 1508 1510 1510 1511 1512 1512 1512 1512 1512 1512 1511 1511 1510 1509 1509 1508 1508 1507 1505 1505 1504 1502 1502 1501 1500 1500 1499 1498 1497 1497 1496 1495 1494 1494 1493 1492 1492 1491
1499 1501 1503 1504 1506 1507 1508 1509 1509 1511 1512 1512 1512 1511 1511 1511 1510 1509 1508 1508 1507 1507 1506 1504 1504 1502 1501 1501 1500 1499 1498 1497 1496 1496 1495 1494 1494 1492 1491 1490 1490 1489 1489
1498 1500 1502 1504 1505 1506 1507 1508 1509 1510 1511 1511 1511 1510 1510 1509 1509 1508 1507 1507 1506 1506 1505 1504 1502 1502 1501 1500 1499 1498 1497 1496 1495 1494 1493 1492 1491 1490 1489 1488 1487 1486 1486
1498 1499 1502 1503 1504 1506 1506 1507 1508 1509 1509 1509 1509 1509 1509 1508 1507 1507 1506 1506 1505 1505 1504 1503 1502 1501 1499 1498 1497 1496 1495 1494 1493 1492 1491 1490 1489 1488 1487 1486 1484 1483 1482
1498 1499 1501 1503 1504 1505 1506 1506 1506 1507 1507 1508 1508 1508 1507 1507 1506 1506 1505 1504 1504 1503 1503 1502 1501 1500 1498 1497 1496 1495 1493 1492 1491 1490 1490 1489 1488 1486 1485 1484 1482 1481 1480
1498 1499 1501 1503 1504 1504 1505 1505 1505 1506 1506 1506 1506 1506 1506 1505 1505 1504 1504 1503 1503 1502 1502 1501 1500 1499 1497 1496 1495 1494 1492 1491 1490 1489 1488 1487 1486 1484 1483 1482 1480 1479 1478
1498 1500 1501 1503 1503 1503 1504 1504 1505 1505 1504 1504 1505 1505 1504 1504 1504 1503 1503 1502 1502 1501 1500 1499 1498 1498 1496 1495 1494 1492 1491 1490 1489 1487 1486 1485 1484 1482 1481 1480 1478 1477 1476
1498 1500 1500 1501 1502 1502 1503 1504 1504 1504 1503 1503 1503 1503 1503 1503 1502 1502 1501 1501 1500 1500 1499 1498 1497 1496 1495 1493 1492 1491 1490 1489 1487 1486 1485 1484 1482 1480 1479 1477 1476 1475 1474
1497 1499 1499 1500 1501 1501 1502 1503 1503 1502 1502 1502 1502 1502 1502 1501 1501 1501 1500 1500 1499 1498 1498 1497 1496 1494 1493 1492 1490 1489 1488 1487 1485 1484 1483 1482 1480 1479 1477 1476 1474 1473 1472
1497 1498 1498 1499 1500 1501 1501 1501 1502 1501 1501 1501 1501 1501 1501 1500 1500 1499 1499 1498 1497 1497 1496 1495 1494 1492 1491 1490 1489 1487 1486 1485 1483 1482 1481 1480 1478 1477 1475 1474 1473 1471 1469
1496 1497 1498 1498 1499 1499 1499 1500 1499 1500 1499 1499 1500 1500 1499 1499 1498 1497 1497 1496 1496 1495 1494 1493 1492 1490 1489 1488 1487 1486 1484 1483 1482 1481 1479 1478 1477 1476 1474 1473 1471 1469 1468